Regional Weather Roundup
Issued by NWS

Home | Current Version | Previous Version | Graphics & Text | Print | Product List | Glossary Off
Versions: 1 2 3 4 5 6 7 8 9 10 11 12 13 14 15 16 17 18 19 20 21 22 23 24 25 26 27 28 29 30 31 32 33 34 35 36 37 38 39 40 41 42 43 44 45 46 47 48 49 50

000
ASUS43 KTOP 302359
RWRKS

WEATHER ROUNDUP FOR KANSAS
NATIONAL WEATHER SERVICE GOODLAND KS
700 PM CDT TUE JUN 30 2015

NOTE:  "FAIR" INDICATES FEW OR NO CLOUDS BELOW 12,000 FEET WITH NO
SIGNIFICANT WEATHER AND/OR OBSTRUCTIONS TO VISIBILITY.

KSZ001>006-013>018-027>032-041>047-010100-
NORTHWEST KANSAS

CITY           SKY/WX    TMP DP  RH WIND       PRES   REMARKS
GOODLAND       SUNNY     94  47  20 S14       29.92F
6HR MIN TEMP:  91; 6HR MAX TEMP:  95;

HAYS           PTSUNNY  100  52  19 SW14      29.83F HX  98
HILL CITY      MOSUNNY  101  44  14 W5        29.82F HX  97
6HR MIN TEMP:  99; 6HR MAX TEMP: 105;

RUSSELL        PTSUNNY  100  50  18 SW14      29.80F HX  97
6HR MIN TEMP:  97; 6HR MAX TEMP: 103;

$$

KSZ061>065-074>080-084>089-010100-
SOUTHWEST KANSAS

CITY           SKY/WX    TMP DP  RH WIND       PRES   REMARKS
DODGE CITY     MOSUNNY   93  51  23 S13       29.91F
6HR MIN TEMP:  91; 6HR MAX TEMP:  95;

ELKHART          N/A     95  48  20 SE12        N/A
GARDEN CITY    MOSUNNY   93  51  23 S17       29.91F
6HR MIN TEMP:  92; 6HR MAX TEMP:  96;

GREAT BEND     MOSUNNY   95  57  28 SW10      29.84F
LIBERAL        MOSUNNY   91  52  25 S13       29.95F
$$

KSZ066>073-081>083-090>101-010100-
SOUTHEAST KANSAS

CITY           SKY/WX    TMP DP  RH WIND       PRES   REMARKS
CHANUTE        MOSUNNY   90  70  51 S8        29.87F HX  95
6HR MIN TEMP:  89; 6HR MAX TEMP:  94;

COFFEYVILLE    MOSUNNY   92  69  47 S7        29.86F HX  97
6HR MIN TEMP:  90; 6HR MAX TEMP:  95;

HUTCHINSON     MOSUNNY   97  56  25 SW14      29.84F HX  95
6HR MIN TEMP:  97; 6HR MAX TEMP: 101;

MEDICINE LODGE   N/A     97  52  21 SW10      29.86F
NEWTON         PTSUNNY   93  57  29 SW12G17   29.88S
PARSONS        MOSUNNY   91  70  49 S6        29.87F HX  96
6HR MIN TEMP:  89; 6HR MAX TEMP:  94;

WICHITA INTL   CLOUDY    95  58  28 SW9       29.85F
6HR MIN TEMP:  94; 6HR MAX TEMP: 100;

WICHITA JABRA  CLOUDY    95  57  27 SW9       29.85F
6HR MIN TEMP:  95; 6HR MAX TEMP:  99;

WINFIELD       MOSUNNY   92  64  39 S13       29.87S
6HR MIN TEMP:  92; 6HR MAX TEMP: 100;

$$

KSZ007>012-019>026-033>040-048>060-102>105-010100-
NORTHEAST KANSAS

CITY           SKY/WX    TMP DP  RH WIND       PRES   REMARKS
CONCORDIA      MOSUNNY   94  62  34 SE9       29.81F
6HR MIN TEMP:  92; 6HR MAX TEMP:  97;

EMPORIA        PTSUNNY   92  67  43 S7        29.84F HX  95
6HR MIN TEMP:  91; 6HR MAX TEMP:  96;

LAWRENCE       PTSUNNY   84  70  62 E6        29.86F
6HR MIN TEMP:  84; 6HR MAX TEMP:  91;

MANHATTAN      PTSUNNY   93  70  46 E8        29.80F HX  99
6HR MIN TEMP:  93; 6HR MAX TEMP: 100;

OLATHE IND     PTSUNNY   85  66  53 E8        29.88F
6HR MIN TEMP:  85; 6HR MAX TEMP:  91;

OLATHE EXE     PTSUNNY   83  65  54 E7        29.88F
6HR MIN TEMP:  83; 6HR MAX TEMP:  89;

SALINA         MOSUNNY   99  55  23 S9        29.80F HX  97
6HR MIN TEMP:  96; 6HR MAX TEMP: 103;

TOPEKA BILLARD PTSUNNY   87  65  47 E8        29.85F
6HR MIN TEMP:  87; 6HR MAX TEMP:  92;

TOPEKA FORBES  PTSUNNY   87  65  47 E12       29.85F
6HR MIN TEMP:  87; 6HR MAX TEMP:  94;

$$


USA.gov is the U.S. government's official web portal to all federal, state and local government web resources and services.